Live-Position
3D-Globus wird geladen...
Über Starlink 32345
Group: 3 satellites
Beschreibung wird geladen...
Nächste Überflüge
Passes for default location (London). Set your location on the main map for personalized predictions.
Höhenverlauf
Loading altitude history...
No altitude history available
Zweizeiliger Elementsatz
1 60920U 24154T 26125.13971516 .00000527 00000-0 29897-4 0 9995
2 60920 53.1605 21.9227 0000961 70.5738 289.5367 15.30198935 94982
Epoch: 5. Mai 2026 •
Age: 8 hours
Aktueller Status
Höhe 475.5 km
Geschwindigkeit 7.63 km/s
Subsatellitenpunkt 3.64°N,
8.38°W
Startdatum 31. Aug. 2024
Alter 1.6 years
Typ internet
Startgruppe
Falcon 9 •
Group 8-10 •
20 satellites
Starlink 11242
60903
Starlink 11256 60904
Starlink 11159 60905
Starlink 11264 60906
Starlink 11226 60907
Starlink 11229 60908
Starlink 11265 60909
Starlink 11250 60910
Starlink 11190 60911
Starlink 11225 60912
Starlink 11273 60913
Starlink 11271 60915
Starlink 32371 60916
Starlink 32369 60917
Starlink 32317 60918
Starlink 32367 60919
Starlink 32356 60921
Starlink 32274 60922
Starlink 32373 60923
Technische Details
Klassifizierung Payload
Masse 730.00 kg
Trockenmasse 700.00 kg
Gesamtmasse 730.00 kg
Länge 0.30 m
Durchmesser 4.10 m
Spannweite 29.00 m
Form Box + pan
Hersteller SPXS
Bus-Typ Starlink V2M
Phasenstatus In Orbit
Besitzer/Staat SPXS/US
Most Searched
Loading...